Caledonia, OH

8:25 AM EST on February 19, 2017 (GMT -0500)
Marion Municipal

Weather History for KMNN - November, 2011

Change the Weather History Date:

Wednesday, November 23, 2011

  Actual Average (KDLZ) Record (KDLZ)
Temperature  
Mean Temperature 42 °F -  
Max Temperature 48 °F 46 °F 66 °F (1963)
Min Temperature 37 °F 27 °F 10 °F (1937)
Degree Days  
Heating Degree Days 22    
Moisture  
Dew Point 37 °F    
Average Humidity 86    
Maximum Humidity 97    
Minimum Humidity 66    
Precipitation  
Precipitation 0.01 in - - ()
Sea Level Pressure  
Sea Level Pressure 30.06 in    
Wind  
Wind Speed 14 mph (NW)    
Max Wind Speed 20 mph    
Max Gust Speed 31 mph    
Visibility 7 miles    
Events Rain    
Averages and records for this station are not official NWS values.
T = Trace of Precipitation, MM = Missing Value Source: NWS Daily Summary

Daily Weather History Graph

Daily Weather History Graph

Search for Another Location

Airport or City:

Trip Planner

Search our weather history database for the weather conditions in past years. The results will help you decide how hot, cold, wet, or windy it might be!

Date:

Astronomy

Nov. 23, 2011 Rise Set
Actual Time 7:27 AM EST 5:09 PM EST
Civil Twilight 6:57 AM EST 5:38 PM EST
Nautical Twilight 6:24 AM EST 6:12 PM EST
Astronomical Twilight 5:51 AM EST 6:45 PM EST
Moon 5:30 AM EST (11/23) 3:50 PM EST (11/23)
Length of Visible Light 10h 41m
Length of Day
9h 41m
Waning Crescent, 4% of the Moon is Illuminated
Nov 23
Waning Crescent
Nov 25
New
Dec 2
First Quarter
Dec 10
Full
Dec 17
Last Quarter

Hourly Weather History & Observations

Time (EST) Temp. Windchill Dew Point Humidity Pressure Visibility Wind Dir Wind Speed Gust Speed Precip Events Conditions
12:05 AM 42.8 °F 34.5 °F 41.0 °F 93% 29.69 in 4.0 mi West 18.4 mph 31.1 mph N/A   Overcast
12:38 AM 41.0 °F 31.9 °F 39.2 °F 93% 29.72 in 2.5 mi WNW 19.6 mph 25.3 mph N/A   Overcast
12:53 AM 39.9 °F 30.8 °F 39.0 °F 97% 29.75 in 2.5 mi WNW 18.4 mph 26.5 mph N/A   Overcast
1:07 AM 39.2 °F 30.5 °F 37.4 °F 93% 29.74 in 2.5 mi NW 16.1 mph 27.6 mph N/A   Overcast
1:37 AM 39.2 °F 30.2 °F 37.4 °F 93% 29.76 in 3.0 mi NW 17.3 mph 26.5 mph 0.00 in Rain Light Rain
1:53 AM 37.9 °F 28.5 °F 37.0 °F 97% 29.78 in 3.0 mi NW 17.3 mph 24.2 mph 0.00 in   Overcast
2:53 AM 37.9 °F 30.0 °F 36.0 °F 93% 29.81 in 4.0 mi NNW 12.7 mph 23.0 mph 0.01 in   Overcast
3:53 AM 37.9 °F 29.6 °F 36.0 °F 93% 29.83 in 10.0 mi NW 13.8 mph - N/A   Overcast
4:53 AM 37.9 °F 29.2 °F 37.0 °F 97% 29.87 in 10.0 mi NNW 15.0 mph 25.3 mph 0.00 in Rain Light Rain
7:53 AM 39.0 °F 29.3 °F 36.0 °F 89% 30.03 in 10.0 mi NNW 19.6 mph 26.5 mph N/A   Overcast
8:53 AM 39.0 °F 30.6 °F 37.0 °F 93% 30.07 in 10.0 mi NNW 15.0 mph - N/A   Overcast
9:53 AM 39.9 °F 32.9 °F 37.9 °F 93% 30.09 in 10.0 mi NW 11.5 mph - N/A   Overcast
10:53 AM 41.0 °F 33.9 °F 37.9 °F 89% 30.14 in 10.0 mi NNW 12.7 mph - N/A   Overcast
11:51 AM 42.8 °F 36.6 °F 37.4 °F 81% 30.12 in 10.0 mi NNW 11.5 mph - N/A   Overcast
11:53 AM 42.1 °F 35.7 °F 37.9 °F 85% 30.14 in 10.0 mi NNW 11.5 mph - N/A   Overcast
12:07 PM 42.8 °F 36.6 °F 37.4 °F 81% 30.12 in 10.0 mi NNW 11.5 mph - N/A   Overcast
12:53 PM 44.1 °F 40.1 °F 37.9 °F 79% 30.15 in 10.0 mi NW 6.9 mph - N/A   Overcast
1:53 PM 45.0 °F 40.1 °F 39.0 °F 80% 30.16 in 10.0 mi WNW 9.2 mph - N/A   Overcast
2:21 PM 46.4 °F 41.1 °F 37.4 °F 71% 30.13 in 10.0 mi NW 11.5 mph - N/A   Scattered Clouds
2:53 PM 46.9 °F - 37.9 °F 71% 30.17 in 10.0 mi NW 9.2 mph - N/A   Clear
3:53 PM 48.0 °F - 37.0 °F 66% 30.18 in 10.0 mi NW 9.2 mph - N/A   Clear
4:53 PM 45.0 °F 43.5 °F 36.0 °F 71% 30.20 in 10.0 mi NW 3.5 mph - N/A   Clear
5:53 PM 42.1 °F 40.2 °F 35.1 °F 76% 30.20 in 10.0 mi West 3.5 mph - N/A   Clear
6:53 PM 42.1 °F 39.2 °F 35.1 °F 76% 30.22 in 10.0 mi West 4.6 mph - N/A   Clear
7:53 PM 41.0 °F 38.0 °F 34.0 °F 76% 30.24 in 10.0 mi West 4.6 mph - N/A   Clear
8:53 PM 39.9 °F 36.7 °F 34.0 °F 79% 30.25 in 10.0 mi West 4.6 mph - N/A   Clear
10:53 PM 37.9 °F 33.5 °F 36.0 °F 93% 30.27 in 4.0 mi WSW 5.8 mph - N/A   Clear
11:42 PM 37.4 °F 32.1 °F 35.6 °F 93% 30.24 in 4.0 mi West 6.9 mph - N/A   Scattered Clouds
11:50 PM 37.4 °F 30.3 °F 35.6 °F 93% 30.24 in 4.0 mi WNW 10.4 mph - N/A   Mostly Cloudy
11:53 PM 37.0 °F 29.8 °F 36.0 °F 96% 30.27 in 3.0 mi WNW 10.4 mph - N/A   Mostly Cloudy
11:57 PM 37.4 °F 30.3 °F 35.6 °F 93% 30.25 in 1.8 mi WNW 10.4 mph - N/A   Mostly Cloudy